Year,Month,Day,Hour,Minute,Value (Times are PST for temperature in C)
2015,07,01,00,00,18.50
2015,07,01,00,01,18.50
2015,07,01,00,02,18.40
2015,07,01,00,03,18.40
2015,07,01,00,04,18.40
2015,07,01,00,05,18.40
2015,07,01,00,06,18.40
2015,07,01,00,07,18.40
2015,07,01,00,08,18.40
2015,07,01,00,09,18.40
2015,07,01,00,10,18.40
2015,07,01,00,11,18.30
2015,07,01,00,12,18.30
2015,07,01,00,13,18.30
2015,07,01,00,14,18.30
2015,07,01,00,15,18.30
2015,07,01,00,16,18.30
2015,07,01,00,17,18.30
2015,07,01,00,18,18.30
2015,07,01,00,19,18.30
2015,07,01,00,20,18.30
2015,07,01,00,21,18.30
2015,07,01,00,22,18.20
2015,07,01,00,23,18.20
2015,07,01,00,24,18.20
2015,07,01,00,25,18.20
2015,07,01,00,26,18.20
2015,07,01,00,27,18.20
2015,07,01,00,28,18.20
2015,07,01,00,29,18.10
2015,07,01,00,30,18.10
2015,07,01,00,31,18.10
2015,07,01,00,32,18.10
2015,07,01,00,33,18.10
2015,07,01,00,34,18.00
2015,07,01,00,35,18.00
2015,07,01,00,36,18.00
2015,07,01,00,37,17.90
2015,07,01,00,38,17.90
2015,07,01,00,39,17.90
2015,07,01,00,40,17.90
2015,07,01,00,41,17.90
2015,07,01,00,42,17.90
2015,07,01,00,43,17.80
2015,07,01,00,44,17.80
2015,07,01,00,45,17.80
2015,07,01,00,46,17.80
2015,07,01,00,47,17.80
2015,07,01,00,48,17.80
2015,07,01,00,49,17.80
2015,07,01,00,50,17.80
2015,07,01,00,51,17.80
2015,07,01,00,52,17.80
2015,07,01,00,53,17.80
2015,07,01,00,54,17.80
2015,07,01,00,55,17.70
2015,07,01,00,56,17.70
2015,07,01,00,57,17.70
2015,07,01,00,58,17.70
2015,07,01,00,59,17.70
2015,07,01,01,00,17.70
2015,07,01,01,01,17.70
2015,07,01,01,02,17.70
2015,07,01,01,03,17.70
2015,07,01,01,04,17.70
2015,07,01,01,05,17.70
2015,07,01,01,06,17.60
2015,07,01,01,07,17.60
2015,07,01,01,08,17.60
2015,07,01,01,09,17.60
2015,07,01,01,10,17.60
2015,07,01,01,11,17.60
2015,07,01,01,12,17.50
2015,07,01,01,13,17.50
2015,07,01,01,14,17.50
2015,07,01,01,15,17.40
2015,07,01,01,16,17.40
2015,07,01,01,17,17.40
2015,07,01,01,18,17.40
2015,07,01,01,19,17.40
2015,07,01,01,20,17.40
2015,07,01,01,21,17.40
2015,07,01,01,22,17.40
2015,07,01,01,23,17.40
2015,07,01,01,24,17.40
2015,07,01,01,25,17.40
2015,07,01,01,26,17.40
2015,07,01,01,27,17.40
2015,07,01,01,28,17.40
2015,07,01,01,29,17.40
2015,07,01,01,30,17.40
2015,07,01,01,31,17.40
2015,07,01,01,32,17.40
2015,07,01,01,33,17.30
2015,07,01,01,34,17.30
2015,07,01,01,35,17.30
2015,07,01,01,36,17.30
2015,07,01,01,37,17.30
2015,07,01,01,38,17.30
2015,07,01,01,39,17.30
2015,07,01,01,40,17.30
2015,07,01,01,41,17.30
2015,07,01,01,42,17.30
2015,07,01,01,43,17.30
2015,07,01,01,44,17.20
2015,07,01,01,45,17.20
2015,07,01,01,46,17.20
2015,07,01,01,47,17.20
2015,07,01,01,48,17.20
2015,07,01,01,49,17.20
2015,07,01,01,50,17.20
2015,07,01,01,51,17.20
2015,07,01,01,52,17.10
2015,07,01,01,53,17.10
2015,07,01,01,54,17.10
2015,07,01,01,55,17.10
2015,07,01,01,56,17.10
2015,07,01,01,57,17.10
2015,07,01,01,58,17.00
2015,07,01,01,59,17.00
2015,07,01,02,00,17.00
2015,07,01,02,01,17.00
2015,07,01,02,02,16.90
2015,07,01,02,03,16.90
2015,07,01,02,04,16.90
2015,07,01,02,05,16.90
2015,07,01,02,06,16.90
2015,07,01,02,07,16.80
2015,07,01,02,08,16.80
2015,07,01,02,09,16.80
2015,07,01,02,10,16.80
2015,07,01,02,11,16.80
2015,07,01,02,12,16.80
2015,07,01,02,13,16.70
2015,07,01,02,14,16.70
2015,07,01,02,15,16.70
2015,07,01,02,16,16.70
2015,07,01,02,17,16.70
2015,07,01,02,18,16.70
2015,07,01,02,19,16.70
2015,07,01,02,20,16.70
2015,07,01,02,21,16.60
2015,07,01,02,22,16.60
2015,07,01,02,23,16.60
2015,07,01,02,24,16.60
2015,07,01,02,25,16.60
2015,07,01,02,26,16.60
2015,07,01,02,27,16.60
2015,07,01,02,28,16.60
2015,07,01,02,29,16.60
2015,07,01,02,30,16.60
2015,07,01,02,31,16.60
2015,07,01,02,32,16.60
2015,07,01,02,33,16.60
2015,07,01,02,34,16.60
2015,07,01,02,35,16.60
2015,07,01,02,36,16.60
2015,07,01,02,37,16.60
2015,07,01,02,38,16.60
2015,07,01,02,39,16.60
2015,07,01,02,40,16.60
2015,07,01,02,41,16.60
2015,07,01,02,42,16.60
2015,07,01,02,43,16.60
2015,07,01,02,44,16.60
2015,07,01,02,45,16.60
2015,07,01,02,46,16.60
2015,07,01,02,47,16.60
2015,07,01,02,48,16.60
2015,07,01,02,49,16.50
2015,07,01,02,50,16.50
2015,07,01,02,51,16.50
2015,07,01,02,52,16.50
2015,07,01,02,53,16.50
2015,07,01,02,54,16.40
2015,07,01,02,55,16.40
2015,07,01,02,56,16.40
2015,07,01,02,57,16.40
2015,07,01,02,58,16.40
2015,07,01,02,59,16.40
2015,07,01,03,00,16.40
2015,07,01,03,01,16.40
2015,07,01,03,02,16.40
2015,07,01,03,03,16.30
2015,07,01,03,04,16.30
2015,07,01,03,05,16.30
2015,07,01,03,06,16.30
2015,07,01,03,07,16.30
2015,07,01,03,08,16.30
2015,07,01,03,09,16.30
2015,07,01,03,10,16.30
2015,07,01,03,11,16.20
2015,07,01,03,12,16.20
2015,07,01,03,13,16.20
2015,07,01,03,14,16.20
2015,07,01,03,15,16.20
2015,07,01,03,16,16.20
2015,07,01,03,17,16.20
2015,07,01,03,18,16.20
2015,07,01,03,19,16.20
2015,07,01,03,20,16.20
2015,07,01,03,21,16.20
2015,07,01,03,22,16.20
2015,07,01,03,23,16.20
2015,07,01,03,24,16.20
2015,07,01,03,25,16.20
2015,07,01,03,26,16.20
2015,07,01,03,27,16.20
2015,07,01,03,28,16.20
2015,07,01,03,29,16.20
2015,07,01,03,30,16.20
2015,07,01,03,31,16.20
2015,07,01,03,32,16.20
2015,07,01,03,33,16.20
2015,07,01,03,34,16.20
2015,07,01,03,35,16.20
2015,07,01,03,36,16.10
2015,07,01,03,37,16.10
2015,07,01,03,38,16.10
2015,07,01,03,39,16.10
2015,07,01,03,40,16.10
2015,07,01,03,41,16.10
2015,07,01,03,42,16.10
2015,07,01,03,43,16.00
2015,07,01,03,44,16.00
2015,07,01,03,45,16.00
2015,07,01,03,46,16.00
2015,07,01,03,47,16.00
2015,07,01,03,48,16.00
2015,07,01,03,49,16.00
2015,07,01,03,50,16.00
2015,07,01,03,51,16.00
2015,07,01,03,52,16.00
2015,07,01,03,53,16.00
2015,07,01,03,54,16.00
2015,07,01,03,55,15.90
2015,07,01,03,56,15.90
2015,07,01,03,57,15.90
2015,07,01,03,58,15.90
2015,07,01,03,59,15.90
2015,07,01,04,00,15.90
2015,07,01,04,01,15.90
2015,07,01,04,02,15.90
2015,07,01,04,03,15.80
2015,07,01,04,04,15.90
2015,07,01,04,05,15.80
2015,07,01,04,06,15.80
2015,07,01,04,07,15.80
2015,07,01,04,08,15.80
2015,07,01,04,09,15.80
2015,07,01,04,10,15.80
2015,07,01,04,11,15.80
2015,07,01,04,12,15.80
2015,07,01,04,13,15.80
2015,07,01,04,14,15.80
2015,07,01,04,15,15.80
2015,07,01,04,16,15.70
2015,07,01,04,17,15.70
2015,07,01,04,18,15.70
2015,07,01,04,19,15.70
2015,07,01,04,20,15.70
2015,07,01,04,21,15.70
2015,07,01,04,22,15.70
2015,07,01,04,23,15.70
2015,07,01,04,24,15.70
2015,07,01,04,25,15.70
2015,07,01,04,26,15.70
2015,07,01,04,27,15.70
2015,07,01,04,28,15.60
2015,07,01,04,29,15.60
2015,07,01,04,30,15.60
2015,07,01,04,31,15.60
2015,07,01,04,32,15.60
2015,07,01,04,33,15.60
2015,07,01,04,34,15.50
2015,07,01,04,35,15.50
2015,07,01,04,36,15.50
2015,07,01,04,37,15.40
2015,07,01,04,38,15.40
2015,07,01,04,39,15.40
2015,07,01,04,40,15.40
2015,07,01,04,41,15.40
2015,07,01,04,42,15.40
2015,07,01,04,43,15.40
2015,07,01,04,44,15.40
2015,07,01,04,45,15.40
2015,07,01,04,46,15.40
2015,07,01,04,47,15.40
2015,07,01,04,48,15.40
2015,07,01,04,49,15.40
2015,07,01,04,50,15.40
2015,07,01,04,51,15.40
2015,07,01,04,52,15.40
2015,07,01,04,53,15.40
2015,07,01,04,54,15.40
2015,07,01,04,55,15.40
2015,07,01,04,56,15.40
2015,07,01,04,57,15.40
2015,07,01,04,58,15.30
2015,07,01,04,59,15.30
2015,07,01,05,00,15.30
2015,07,01,05,01,15.30
2015,07,01,05,02,15.30
2015,07,01,05,03,15.30
2015,07,01,05,04,15.30
2015,07,01,05,05,15.30
2015,07,01,05,06,15.30
2015,07,01,05,07,15.30
2015,07,01,05,08,15.30
2015,07,01,05,09,15.30
2015,07,01,05,10,15.30
2015,07,01,05,11,15.30
2015,07,01,05,12,15.30
2015,07,01,05,13,15.30
2015,07,01,05,14,15.30
2015,07,01,05,15,15.30
2015,07,01,05,16,15.30
2015,07,01,05,17,15.30
2015,07,01,05,18,15.30
2015,07,01,05,19,15.30
2015,07,01,05,20,15.30
2015,07,01,05,21,15.30
2015,07,01,05,22,15.30
2015,07,01,05,23,15.30
2015,07,01,05,24,15.30
2015,07,01,05,25,15.30
2015,07,01,05,26,15.30
2015,07,01,05,27,15.30
2015,07,01,05,28,15.30
2015,07,01,05,29,15.30
2015,07,01,05,30,15.30
2015,07,01,05,31,15.30
2015,07,01,05,32,15.30
2015,07,01,05,33,15.30
2015,07,01,05,34,15.30
2015,07,01,05,35,15.30
2015,07,01,05,36,15.30
2015,07,01,05,37,15.30
2015,07,01,05,38,15.30
2015,07,01,05,39,15.30
2015,07,01,05,40,15.30
2015,07,01,05,41,15.30
2015,07,01,05,42,15.30
2015,07,01,05,43,15.30
2015,07,01,05,44,15.30
2015,07,01,05,45,15.30
2015,07,01,05,46,15.30
2015,07,01,05,47,15.30
2015,07,01,05,48,15.30
2015,07,01,05,49,15.30
2015,07,01,05,50,15.30
2015,07,01,05,51,15.30
2015,07,01,05,52,15.40
2015,07,01,05,53,15.40
2015,07,01,05,54,15.40
2015,07,01,05,55,15.40
2015,07,01,05,56,15.40
2015,07,01,05,57,15.40
2015,07,01,05,58,15.40
2015,07,01,05,59,15.40
2015,07,01,06,00,15.50
2015,07,01,06,01,15.60
2015,07,01,06,02,15.60
2015,07,01,06,03,15.70
2015,07,01,06,04,15.70
2015,07,01,06,05,15.80
2015,07,01,06,06,15.80
2015,07,01,06,07,15.80
2015,07,01,06,08,15.80
2015,07,01,06,09,15.80
2015,07,01,06,10,15.90
2015,07,01,06,11,15.90
2015,07,01,06,12,16.00
2015,07,01,06,13,16.00
2015,07,01,06,14,16.10
2015,07,01,06,15,16.20
2015,07,01,06,16,16.30
2015,07,01,06,17,16.40
2015,07,01,06,18,16.50
2015,07,01,06,19,16.60
2015,07,01,06,20,16.70
2015,07,01,06,21,16.90
2015,07,01,06,22,17.00
2015,07,01,06,23,17.10
2015,07,01,06,24,17.20
2015,07,01,06,25,17.30
2015,07,01,06,26,17.40
2015,07,01,06,27,17.50
2015,07,01,06,28,17.60
2015,07,01,06,29,17.70
2015,07,01,06,30,17.70
2015,07,01,06,31,17.70
2015,07,01,06,32,17.80
2015,07,01,06,33,17.80
2015,07,01,06,34,17.80
2015,07,01,06,35,17.80
2015,07,01,06,36,17.70
2015,07,01,06,37,17.70
2015,07,01,06,38,17.80
2015,07,01,06,39,17.80
2015,07,01,06,40,17.80
2015,07,01,06,41,17.80
2015,07,01,06,42,17.90
2015,07,01,06,43,18.00
2015,07,01,06,44,18.10
2015,07,01,06,45,18.10
2015,07,01,06,46,18.20
2015,07,01,06,47,18.30
2015,07,01,06,48,18.30
2015,07,01,06,49,18.40
2015,07,01,06,50,18.40
2015,07,01,06,51,18.40
2015,07,01,06,52,18.40
2015,07,01,06,53,18.40
2015,07,01,06,54,18.50
2015,07,01,06,55,18.50
2015,07,01,06,56,18.60
2015,07,01,06,57,18.60
2015,07,01,06,58,18.70
2015,07,01,06,59,18.70
2015,07,01,07,00,18.70
2015,07,01,07,01,18.70
2015,07,01,07,02,18.70
2015,07,01,07,03,18.70
2015,07,01,07,04,18.70
2015,07,01,07,05,18.70
2015,07,01,07,06,18.60
2015,07,01,07,07,18.60
2015,07,01,07,08,18.60
2015,07,01,07,09,18.60
2015,07,01,07,10,18.60
2015,07,01,07,11,18.60
2015,07,01,07,12,18.70
2015,07,01,07,13,18.70
2015,07,01,07,14,18.70
2015,07,01,07,15,18.70
2015,07,01,07,16,18.70
2015,07,01,07,17,18.80
2015,07,01,07,18,18.80
2015,07,01,07,19,18.80
2015,07,01,07,20,18.80
2015,07,01,07,21,18.90
2015,07,01,07,22,18.90
2015,07,01,07,23,18.80
2015,07,01,07,24,18.80
2015,07,01,07,25,18.80
2015,07,01,07,26,18.90
2015,07,01,07,27,18.90
2015,07,01,07,28,18.90
2015,07,01,07,29,18.90
2015,07,01,07,30,19.00
2015,07,01,07,31,19.00
2015,07,01,07,32,19.10
2015,07,01,07,33,19.20
2015,07,01,07,34,19.20
2015,07,01,07,35,19.30
2015,07,01,07,36,19.40
2015,07,01,07,37,19.40
2015,07,01,07,38,19.50
2015,07,01,07,39,19.70
2015,07,01,07,40,19.80
2015,07,01,07,41,19.90
2015,07,01,07,42,20.10
2015,07,01,07,43,20.20
2015,07,01,07,44,20.40
2015,07,01,07,45,20.50
2015,07,01,07,46,20.60
2015,07,01,07,47,20.60
2015,07,01,07,48,20.60
2015,07,01,07,49,20.60
2015,07,01,07,50,20.60
2015,07,01,07,51,20.50
2015,07,01,07,52,20.50
2015,07,01,07,53,20.50
2015,07,01,07,54,20.60
2015,07,01,07,55,20.60
2015,07,01,07,56,20.70
2015,07,01,07,57,20.70
2015,07,01,07,58,20.80
2015,07,01,07,59,20.80
2015,07,01,08,00,20.80
2015,07,01,08,01,20.80
2015,07,01,08,02,20.90
2015,07,01,08,03,20.90
2015,07,01,08,04,20.90
2015,07,01,08,05,20.90
2015,07,01,08,06,21.00
2015,07,01,08,07,21.00
2015,07,01,08,08,21.10
2015,07,01,08,09,21.20
2015,07,01,08,10,21.20
2015,07,01,08,11,21.20
2015,07,01,08,12,21.20
2015,07,01,08,13,21.20
2015,07,01,08,14,21.20
2015,07,01,08,15,21.20
2015,07,01,08,16,21.30
2015,07,01,08,17,21.30
2015,07,01,08,18,21.30
2015,07,01,08,19,21.40
2015,07,01,08,20,21.40
2015,07,01,08,21,21.40
2015,07,01,08,22,21.40
2015,07,01,08,23,21.50
2015,07,01,08,24,21.50
2015,07,01,08,25,21.60
2015,07,01,08,26,21.60
2015,07,01,08,27,21.70
2015,07,01,08,28,21.80
2015,07,01,08,29,21.90
2015,07,01,08,30,21.90
2015,07,01,08,31,21.90
2015,07,01,08,32,22.00
2015,07,01,08,33,22.10
2015,07,01,08,34,22.10
2015,07,01,08,35,22.10
2015,07,01,08,36,22.20
2015,07,01,08,37,22.20
2015,07,01,08,38,22.20
2015,07,01,08,39,22.10
2015,07,01,08,40,22.10
2015,07,01,08,41,22.10
2015,07,01,08,42,22.10
2015,07,01,08,43,22.20
2015,07,01,08,44,22.20
2015,07,01,08,45,22.30
2015,07,01,08,46,22.30
2015,07,01,08,47,22.30
2015,07,01,08,48,22.30
2015,07,01,08,49,22.30
2015,07,01,08,50,22.30
2015,07,01,08,51,22.30
2015,07,01,08,52,22.30
2015,07,01,08,53,22.30
2015,07,01,08,54,22.30
2015,07,01,08,55,22.30
2015,07,01,08,56,22.30
2015,07,01,08,57,22.40
2015,07,01,08,58,22.40
2015,07,01,08,59,22.40
2015,07,01,09,00,22.40
2015,07,01,09,01,22.40
2015,07,01,09,02,22.50
2015,07,01,09,03,22.60
2015,07,01,09,04,22.60
2015,07,01,09,05,22.60
2015,07,01,09,06,22.70
2015,07,01,09,07,22.70
2015,07,01,09,08,22.80
2015,07,01,09,09,22.80
2015,07,01,09,10,22.90
2015,07,01,09,11,22.90
2015,07,01,09,12,23.00
2015,07,01,09,13,23.10
2015,07,01,09,14,23.10
2015,07,01,09,15,23.20
2015,07,01,09,16,23.30
2015,07,01,09,17,23.30
2015,07,01,09,18,23.40
2015,07,01,09,19,23.40
2015,07,01,09,20,23.40
2015,07,01,09,21,23.50
2015,07,01,09,22,23.60
2015,07,01,09,23,23.60
2015,07,01,09,24,23.70
2015,07,01,09,25,23.70
2015,07,01,09,26,23.70
2015,07,01,09,27,23.80
2015,07,01,09,28,23.80
2015,07,01,09,29,23.90
2015,07,01,09,30,23.90
2015,07,01,09,31,24.00
2015,07,01,09,32,24.10
2015,07,01,09,33,24.20
2015,07,01,09,34,24.30
2015,07,01,09,35,24.30
2015,07,01,09,36,24.40
2015,07,01,09,37,24.40
2015,07,01,09,38,24.50
2015,07,01,09,39,24.50
2015,07,01,09,40,24.50
2015,07,01,09,41,24.60
2015,07,01,09,42,24.60
2015,07,01,09,43,24.60
2015,07,01,09,44,24.70
2015,07,01,09,45,24.70
2015,07,01,09,46,24.70
2015,07,01,09,47,24.70
2015,07,01,09,48,24.70
2015,07,01,09,49,24.60
2015,07,01,09,50,24.70
2015,07,01,09,51,24.70
2015,07,01,09,52,24.70
2015,07,01,09,53,24.70
2015,07,01,09,54,24.70
2015,07,01,09,55,24.70
2015,07,01,09,56,24.70
2015,07,01,09,57,24.70
2015,07,01,09,58,24.80
2015,07,01,09,59,24.80
2015,07,01,10,00,24.80
2015,07,01,10,01,24.80
2015,07,01,10,02,24.90
2015,07,01,10,03,24.90
2015,07,01,10,04,25.00
2015,07,01,10,05,25.00
2015,07,01,10,06,25.10
2015,07,01,10,07,25.10
2015,07,01,10,08,25.20
2015,07,01,10,09,25.20
2015,07,01,10,10,25.20
2015,07,01,10,11,25.20
2015,07,01,10,12,25.20
2015,07,01,10,13,25.20
2015,07,01,10,14,25.20
2015,07,01,10,15,25.10
2015,07,01,10,16,25.10
2015,07,01,10,17,25.10
2015,07,01,10,18,25.10
2015,07,01,10,19,25.10
2015,07,01,10,20,25.10
2015,07,01,10,21,25.10
2015,07,01,10,22,25.10
2015,07,01,10,23,25.10
2015,07,01,10,24,25.20
2015,07,01,10,25,25.20
2015,07,01,10,26,25.30
2015,07,01,10,27,25.30
2015,07,01,10,28,25.40
2015,07,01,10,29,25.50
2015,07,01,10,30,25.50
2015,07,01,10,31,25.50
2015,07,01,10,32,25.50
2015,07,01,10,33,25.50
2015,07,01,10,34,25.50
2015,07,01,10,35,25.60
2015,07,01,10,36,25.60
2015,07,01,10,37,25.60
2015,07,01,10,38,25.60
2015,07,01,10,39,25.70
2015,07,01,10,40,25.80
2015,07,01,10,41,25.90
2015,07,01,10,42,26.00
2015,07,01,10,43,26.00
2015,07,01,10,44,26.00
2015,07,01,10,45,26.00
2015,07,01,10,46,26.00
2015,07,01,10,47,26.00
2015,07,01,10,48,26.00
2015,07,01,10,49,26.10
2015,07,01,10,50,26.10
2015,07,01,10,51,26.10
2015,07,01,10,52,26.10
2015,07,01,10,53,26.20
2015,07,01,10,54,26.10
2015,07,01,10,55,26.00
2015,07,01,10,56,25.90
2015,07,01,10,57,25.90
2015,07,01,10,58,25.90
2015,07,01,10,59,26.00
2015,07,01,11,00,26.10
2015,07,01,11,01,26.10
2015,07,01,11,02,26.20
2015,07,01,11,03,26.20
2015,07,01,11,04,26.20
2015,07,01,11,05,26.10
2015,07,01,11,06,26.00
2015,07,01,11,07,25.80
2015,07,01,11,08,25.80
2015,07,01,11,09,25.70
2015,07,01,11,10,25.70
2015,07,01,11,11,25.70
2015,07,01,11,12,25.70
2015,07,01,11,13,25.70
2015,07,01,11,14,25.60
2015,07,01,11,15,25.60
2015,07,01,11,16,25.60
2015,07,01,11,17,25.50
2015,07,01,11,18,25.60
2015,07,01,11,19,25.60
2015,07,01,11,20,25.60
2015,07,01,11,21,25.60
2015,07,01,11,22,25.60
2015,07,01,11,23,25.60
2015,07,01,11,24,25.50
2015,07,01,11,25,25.40
2015,07,01,11,26,25.40
2015,07,01,11,27,25.40
2015,07,01,11,28,25.50
2015,07,01,11,29,25.60
2015,07,01,11,30,25.60
2015,07,01,11,31,25.60
2015,07,01,11,32,25.70
2015,07,01,11,33,25.70
2015,07,01,11,34,25.80
2015,07,01,11,35,25.80
2015,07,01,11,36,25.90
2015,07,01,11,37,25.90
2015,07,01,11,38,25.90
2015,07,01,11,39,25.90
2015,07,01,11,40,25.80
2015,07,01,11,41,25.80
2015,07,01,11,42,25.80
2015,07,01,11,43,25.80
2015,07,01,11,44,25.90
2015,07,01,11,45,25.90
2015,07,01,11,46,26.00
2015,07,01,11,47,26.00
2015,07,01,11,48,26.00
2015,07,01,11,49,26.00
2015,07,01,11,50,26.00
2015,07,01,11,51,26.00
2015,07,01,11,52,26.10
2015,07,01,11,53,26.20
2015,07,01,11,54,26.20
2015,07,01,11,55,26.30
2015,07,01,11,56,26.20
2015,07,01,11,57,26.20
2015,07,01,11,58,26.20
2015,07,01,11,59,26.20
2015,07,01,12,00,26.20
2015,07,01,12,01,26.10
2015,07,01,12,02,26.10
2015,07,01,12,03,26.10
2015,07,01,12,04,26.10
2015,07,01,12,05,26.20
2015,07,01,12,06,26.20
2015,07,01,12,07,26.30
2015,07,01,12,08,26.40
2015,07,01,12,09,26.60
2015,07,01,12,10,26.60
2015,07,01,12,11,26.50
2015,07,01,12,12,26.50
2015,07,01,12,13,26.40
2015,07,01,12,14,26.40
2015,07,01,12,15,26.50
2015,07,01,12,16,26.60
2015,07,01,12,17,26.70
2015,07,01,12,18,26.70
2015,07,01,12,19,26.70
2015,07,01,12,20,26.70
2015,07,01,12,21,26.70
2015,07,01,12,22,26.70
2015,07,01,12,23,26.70
2015,07,01,12,24,26.70
2015,07,01,12,25,26.70
2015,07,01,12,26,26.70
2015,07,01,12,27,26.70
2015,07,01,12,28,26.70
2015,07,01,12,29,26.70
2015,07,01,12,30,26.70
2015,07,01,12,31,26.70
2015,07,01,12,32,26.80
2015,07,01,12,33,26.90
2015,07,01,12,34,27.00
2015,07,01,12,35,27.20
2015,07,01,12,36,27.30
2015,07,01,12,37,27.40
2015,07,01,12,38,27.60
2015,07,01,12,39,27.70
2015,07,01,12,40,27.90
2015,07,01,12,41,28.00
2015,07,01,12,42,28.00
2015,07,01,12,43,28.10
2015,07,01,12,44,28.10
2015,07,01,12,45,28.00
2015,07,01,12,46,27.90
2015,07,01,12,47,27.80
2015,07,01,12,48,27.70
2015,07,01,12,49,27.60
2015,07,01,12,50,27.50
2015,07,01,12,51,27.40
2015,07,01,12,52,27.40
2015,07,01,12,53,27.40
2015,07,01,12,54,27.40
2015,07,01,12,55,27.50
2015,07,01,12,56,27.50
2015,07,01,12,57,27.60
2015,07,01,12,58,27.60
2015,07,01,12,59,27.60
2015,07,01,13,00,27.70
2015,07,01,13,01,27.80
2015,07,01,13,02,27.80
2015,07,01,13,03,27.80
2015,07,01,13,04,27.90
2015,07,01,13,05,27.90
2015,07,01,13,06,28.00
2015,07,01,13,07,28.10
2015,07,01,13,08,28.10
2015,07,01,13,09,28.10
2015,07,01,13,10,28.10
2015,07,01,13,11,28.10
2015,07,01,13,12,28.10
2015,07,01,13,13,28.10
2015,07,01,13,14,28.10
2015,07,01,13,15,28.20
2015,07,01,13,16,28.20
2015,07,01,13,17,28.20
2015,07,01,13,18,28.20
2015,07,01,13,19,28.20
2015,07,01,13,20,28.20
2015,07,01,13,21,28.20
2015,07,01,13,22,28.20
2015,07,01,13,23,28.20
2015,07,01,13,24,28.20
2015,07,01,13,25,28.20
2015,07,01,13,26,28.20
2015,07,01,13,27,28.30
2015,07,01,13,28,28.40
2015,07,01,13,29,28.50
2015,07,01,13,30,28.60
2015,07,01,13,31,28.60
2015,07,01,13,32,28.70
2015,07,01,13,33,28.70
2015,07,01,13,34,28.70
2015,07,01,13,35,28.80
2015,07,01,13,36,28.80
2015,07,01,13,37,28.80
2015,07,01,13,38,28.80
2015,07,01,13,39,28.80
2015,07,01,13,40,28.80
2015,07,01,13,41,28.80
2015,07,01,13,42,28.80
2015,07,01,13,43,28.80
2015,07,01,13,44,28.80
2015,07,01,13,45,28.70
2015,07,01,13,46,28.70
2015,07,01,13,47,28.70
2015,07,01,13,48,28.60
2015,07,01,13,49,28.60
2015,07,01,13,50,28.60
2015,07,01,13,51,28.50
2015,07,01,13,52,28.50
2015,07,01,13,53,28.50
2015,07,01,13,54,28.50
2015,07,01,13,55,28.60
2015,07,01,13,56,28.70
2015,07,01,13,57,28.80
2015,07,01,13,58,28.90
2015,07,01,13,59,29.00
2015,07,01,14,00,29.00
2015,07,01,14,01,29.10
2015,07,01,14,02,29.10
2015,07,01,14,03,29.10
2015,07,01,14,04,29.00
2015,07,01,14,05,29.00
2015,07,01,14,06,28.90
2015,07,01,14,07,28.90
2015,07,01,14,08,29.00
2015,07,01,14,09,29.20
2015,07,01,14,10,29.40
2015,07,01,14,11,29.50
2015,07,01,14,12,29.50
2015,07,01,14,13,29.50
2015,07,01,14,14,29.50
2015,07,01,14,15,29.60
2015,07,01,14,16,29.60
2015,07,01,14,17,29.60
2015,07,01,14,18,29.60
2015,07,01,14,19,29.60
2015,07,01,14,20,29.60
2015,07,01,14,21,29.50
2015,07,01,14,22,29.40
2015,07,01,14,23,29.40
2015,07,01,14,24,29.40
2015,07,01,14,25,29.40
2015,07,01,14,26,29.40
2015,07,01,14,27,29.50
2015,07,01,14,28,29.50
2015,07,01,14,29,29.50
2015,07,01,14,30,29.50
2015,07,01,14,31,29.50
2015,07,01,14,32,29.60
2015,07,01,14,33,29.60
2015,07,01,14,34,29.70
2015,07,01,14,35,29.80
2015,07,01,14,36,29.90
2015,07,01,14,37,30.00
2015,07,01,14,38,30.10
2015,07,01,14,39,30.10
2015,07,01,14,40,30.10
2015,07,01,14,41,30.10
2015,07,01,14,42,30.10
2015,07,01,14,43,30.00
2015,07,01,14,44,30.00
2015,07,01,14,45,29.90
2015,07,01,14,46,29.90
2015,07,01,14,47,30.00
2015,07,01,14,48,30.10
2015,07,01,14,49,30.20
2015,07,01,14,50,30.20
2015,07,01,14,51,30.30
2015,07,01,14,52,30.40
2015,07,01,14,53,30.50
2015,07,01,14,54,30.60
2015,07,01,14,55,30.60
2015,07,01,14,56,30.70
2015,07,01,14,57,30.70
2015,07,01,14,58,30.70
2015,07,01,14,59,30.60
2015,07,01,15,00,30.60
2015,07,01,15,01,30.60
2015,07,01,15,02,30.60
2015,07,01,15,03,30.60
2015,07,01,15,04,30.50
2015,07,01,15,05,30.40
2015,07,01,15,06,30.30
2015,07,01,15,07,30.30
2015,07,01,15,08,30.20
2015,07,01,15,09,30.20
2015,07,01,15,10,30.20
2015,07,01,15,11,30.20
2015,07,01,15,12,30.20
2015,07,01,15,13,30.20
2015,07,01,15,14,30.20
2015,07,01,15,15,30.20
2015,07,01,15,16,30.10
2015,07,01,15,17,30.10
2015,07,01,15,18,30.10
2015,07,01,15,19,30.20
2015,07,01,15,20,30.20
2015,07,01,15,21,30.20
2015,07,01,15,22,30.30
2015,07,01,15,23,30.40
2015,07,01,15,24,30.30
2015,07,01,15,25,30.30
2015,07,01,15,26,30.20
2015,07,01,15,27,30.20
2015,07,01,15,28,30.10
2015,07,01,15,29,30.10
2015,07,01,15,30,30.10
2015,07,01,15,31,30.10
2015,07,01,15,32,30.10
2015,07,01,15,33,30.10
2015,07,01,15,34,30.10
2015,07,01,15,35,30.10
2015,07,01,15,36,30.20
2015,07,01,15,37,30.20
2015,07,01,15,38,30.30
2015,07,01,15,39,30.30
2015,07,01,15,40,30.30
2015,07,01,15,41,30.20
2015,07,01,15,42,30.00
2015,07,01,15,43,29.90
2015,07,01,15,44,29.70
2015,07,01,15,45,29.50
2015,07,01,15,46,29.40
2015,07,01,15,47,29.40
2015,07,01,15,48,29.40
2015,07,01,15,49,29.40
2015,07,01,15,50,29.40
2015,07,01,15,51,29.40
2015,07,01,15,52,29.30
2015,07,01,15,53,29.30
2015,07,01,15,54,29.20
2015,07,01,15,55,29.20
2015,07,01,15,56,29.20
2015,07,01,15,57,29.20
2015,07,01,15,58,29.30
2015,07,01,15,59,29.30
2015,07,01,16,00,29.30
2015,07,01,16,01,29.20
2015,07,01,16,02,29.10
2015,07,01,16,03,29.10
2015,07,01,16,04,29.10
2015,07,01,16,05,29.10
2015,07,01,16,06,29.00
2015,07,01,16,07,29.00
2015,07,01,16,08,28.90
2015,07,01,16,09,28.90
2015,07,01,16,10,29.00
2015,07,01,16,11,29.20
2015,07,01,16,12,29.20
2015,07,01,16,13,29.20
2015,07,01,16,14,29.20
2015,07,01,16,15,29.10
2015,07,01,16,16,29.10
2015,07,01,16,17,29.20
2015,07,01,16,18,29.30
2015,07,01,16,19,29.40
2015,07,01,16,20,29.50
2015,07,01,16,21,29.40
2015,07,01,16,22,29.40
2015,07,01,16,23,29.40
2015,07,01,16,24,29.40
2015,07,01,16,25,29.40
2015,07,01,16,26,29.40
2015,07,01,16,27,29.40
2015,07,01,16,28,29.40
2015,07,01,16,29,29.40
2015,07,01,16,30,29.40
2015,07,01,16,31,29.50
2015,07,01,16,32,29.50
2015,07,01,16,33,29.60
2015,07,01,16,34,29.70
2015,07,01,16,35,29.80
2015,07,01,16,36,29.80
2015,07,01,16,37,29.90
2015,07,01,16,38,29.90
2015,07,01,16,39,29.90
2015,07,01,16,40,29.90
2015,07,01,16,41,29.80
2015,07,01,16,42,29.90
2015,07,01,16,43,29.90
2015,07,01,16,44,30.00
2015,07,01,16,45,30.00
2015,07,01,16,46,30.00
2015,07,01,16,47,29.90
2015,07,01,16,48,29.80
2015,07,01,16,49,29.80
2015,07,01,16,50,29.80
2015,07,01,16,51,29.80
2015,07,01,16,52,29.80
2015,07,01,16,53,29.80
2015,07,01,16,54,29.80
2015,07,01,16,55,29.90
2015,07,01,16,56,29.90
2015,07,01,16,57,30.00
2015,07,01,16,58,30.10
2015,07,01,16,59,30.10
2015,07,01,17,00,30.10
2015,07,01,17,01,30.10
2015,07,01,17,02,30.10
2015,07,01,17,03,30.10
2015,07,01,17,04,30.10
2015,07,01,17,05,30.20
2015,07,01,17,06,30.20
2015,07,01,17,07,30.30
2015,07,01,17,08,30.40
2015,07,01,17,09,30.40
2015,07,01,17,10,30.40
2015,07,01,17,11,30.40
2015,07,01,17,12,30.40
2015,07,01,17,13,30.50
2015,07,01,17,14,30.50
2015,07,01,17,15,30.60
2015,07,01,17,16,30.70
2015,07,01,17,17,30.80
2015,07,01,17,18,30.80
2015,07,01,17,19,30.80